HST
1 20580U 90037B   24259.22914428  .00011593  00000-0  52246-3 0  9999
2 20580  28.4677 101.1925 0002563 317.3292  42.7101 15.19445664690996
ISS (ZARYA)
1 25544U 98067A   24259.37728730  .00068309  00000-0  12292-2 0  9993
2 25544  51.6367 228.6268 0007496 355.4785 164.9285 15.49161729472538
CXO
1 25867U 99040B   24260.41841978  .00001178  00000-0  00000+0 0  9992
2 25867  43.0906 146.4135 8793537 301.2858   0.7279  0.37805052 26064